This is the latest recevied weather packets stored in our database for station/object N3WAX-1. If no packets are shown the sender has not sent any weather packets the latest 10 day(s).
| Time | Temp. | Humidity | Pressure | Rain* | Wind** | Luminosity | Snow |
|---|---|---|---|---|---|---|---|
| 1777831228 | 13.33° C | 46% | 1014.3 hPa | 0 mm | - | 1090 W/m² | - |
| 1777829729 | 11.67° C | 47% | 1014.3 hPa | 0 mm | - | 1021 W/m² | - |
| 1777829712 | 12.22° C | 45% | 1014.4 hPa | 0 mm | - | 1013 W/m² | - |
| 1777828528 | 12.22° C | 44% | 1014.6 hPa | 0 mm | - | 1013 W/m² | - |
| 1777826420 | 11.11° C | 49% | 1014.8 hPa | 0 mm | - | 229 W/m² | - |
| 1777824618 | 10.56° C | 51% | 1015.1 hPa | 0 mm | - | 988 W/m² | - |
| 1777824318 | 10.56° C | 53% | 1015.1 hPa | 0 mm | - | 248 W/m² | - |
| 1777823719 | 10.56° C | 54% | 1015 hPa | 0 mm | - | 1014 W/m² | - |
| 1777820392 | 10° C | 58% | 1015.2 hPa | 0 mm | - | 981 W/m² | - |
| 1777820092 | 8.89° C | 55% | 1015.2 hPa | 0 mm | - | 937 W/m² | - |
| 1777815893 | 8.33° C | 61% | 1015.2 hPa | 0 mm | - | 745 W/m² | - |
| 1777814992 | 8.89° C | 62% | 1015.1 hPa | 0 mm | - | 677 W/m² | - |
| 1777813184 | 7.78° C | 64% | 1014.9 hPa | 0 mm | - | 548 W/m² | - |
| 1777812717 | 7.78° C | 68% | 1014.9 hPa | 0 mm | - | 515 W/m² | - |
| 1777810255 | 7.78° C | 66% | 1014.4 hPa | 0 mm | - | 343 W/m² | - |
| 1777809344 | 7.22° C | 69% | 1014.3 hPa | 0 mm | - | 304 W/m² | - |
| 1777808905 | 7.22° C | 70% | 1014.4 hPa | 0 mm | - | 262 W/m² | - |
| 1777808606 | 7.22° C | 72% | 1014.4 hPa | 0 mm | - | 239 W/m² | - |
| 1777808150 | 6.11° C | 74% | 1014.4 hPa | 0 mm | - | 178 W/m² | - |
| 1777807409 | 5.56° C | 75% | 1014.3 hPa | 0 mm | - | 70 W/m² | - |
| 1777804700 | 6.11° C | 74% | 1013.5 hPa | 0 mm | - | 23 W/m² | - |
| 1777804098 | 6.11° C | 73% | 1013.5 hPa | 0 mm | - | 11 W/m² | - |
| 1777803195 | 6.11° C | 72% | 1013.3 hPa | 0 mm | - | 5 W/m² | - |
| 1777801396 | 6.11° C | 74% | 1012.8 hPa | 0 mm | - | 0 W/m² | - |
| 1777800480 | 6.11° C | 75% | 1012.6 hPa | 0 mm | - | 0 W/m² | - |
* Rain latest hour (hover to see other rain measurements)
** Current wind speed in m/s (hover to see current wind gust speed)